Погода в Ческа-Скалице

Чехия     50°23′40″N   16°02′32″E
В апреле 2022 года жителям России запретили посещать сайт meteo.paraplan.net по решению Генеральной прокуратуры. Аудитория сайта уменьшилась в 10 раз. Владельцы сайта не видят смысла в поддержке погодного сервера в таких условиях. Сайт будет закрыт в октябре.
темп.,
°C
ветер,
м/с
пор.,
м/с
влажн.,
%
обл.,
%
осадки,
мм/ч
давл.,
гПа
погр.,
м
25 сентября, вс
вс2523:00+8вюв118285 0.0 101512
02:00+7в118487 0.0 101510
05:00+7всв118799 0.0 101410
08:00+9в118326 0.0 101436
11:00+14ю336817 0.0 1013636
14:00+16ююз436659 0.2 10111046
17:00+14ю327196 0.3 1011741
20:00+10вюв1192100 0.4 101112
26 сентября, пн
пн2623:00+10ююв119159 0.1 101020
02:00+9ююв119795 0.3 100912
05:00+10ю1396100 1.4 1008137
08:00+10ююз1298100 1.8 1008188
11:00+10ююз119466 1.1 1008173
14:00+13ююз457485 1.8 1007808
17:00+13ююз45738 0.4 1005825
20:00+9ююв22926 0.4 100626
27 сентября, вт
вт2723:00+7ююв229417 0.2 100519
02:00+7ююв2296100 0.4 100433
05:00+6ю2297100 0.0 100246
08:00+8ю2695100 0.2 1002295
11:00+9ююз51191100 0.4 1001837
14:00+11зюз71077100 1.1 10011146
17:00+8зюз6992100 1.2 1002620
20:00+6юз3109436 1.6 1003352
28 сентября, ср
ср2823:00+4ююз25976 0.0 1004118
02:00+5ю289696 0.3 1003314
05:00+6ююв3794100 0.1 1001339
08:00+6ю51095100 0.8 1000658
11:00+9юз7118386 0.4 10001083
14:00+10юз697697 1.4 9991109
17:00+8зюз5990100 1.8 1000830
20:00+7юз389579 2.9 1002340
29 сентября, чт
чт2923:00+5ююз239762 0.0 100385
02:00+4ю2299100 0.0 100431
05:00+5ю2298100 0.0 1004136
08:00+5ю139693 0.0 1005195
11:00+9юз4682100 0.0 1006722
14:00+12зюз456394 0.1 10051335
17:00+12зюз2463100 0.1 1006398
20:00+8ююв1175100 0.1 100811